Location: Karcze
(52.0945°N, 22.4786°E)
Time: 18:35:05
(UTC+00:00)

A-11 Canister half - Pass Details

Date: 10 August 2021
Orbit: 1515 x 1685 km, 47.2° (Epoch: 20 September)

Event Time Altitude Azimuth Distance (km) Brightness Sun altitude
Rises 13:26:33 0° 229° (SW) 4,724 12.4 40.1°
Reaches altitude 10° 13:29:41 10° 224° (SW) 3,764 12.2 39.7°
Maximum altitude 13:38:45 50° 153° (SSE) 1,989 10.1 38.5°
Drops below altitude 10° 13:48:08 10° 83° (E) 3,901 10.8 37.2°
Sets 13:51:26 0° 79° (ENE) 4,908 11.2 36.7°
